San Diego Montgomery, CA

12:38 PM PDT on March 30, 2017 (GMT -0700)
Montgomery

Weather History for KMYF - June, 2014

Change the Weather History Date:

Monday, June 9, 2014

  Actual Average Record
Temperature  
Mean Temperature 66 °F -  
Max Temperature 73 °F 69 °F 84 °F (2015)
Min Temperature 62 °F 57 °F 55 °F (2004)
Cooling Degree Days 2    
Growing Degree Days 16 (Base 50)    
Moisture  
Dew Point 59 °F    
Average Humidity 80    
Maximum Humidity 86    
Minimum Humidity 68    
Precipitation  
Precipitation 0.00 in - - ()
Sea Level Pressure  
Sea Level Pressure 29.80 in    
Wind  
Wind Speed 2 mph (WSW)    
Max Wind Speed 12 mph    
Max Gust Speed -    
Visibility 8 miles    
Events      
Averages and records for this station are not official NWS values.
T = Trace of Precipitation, MM = Missing Value Source: NWS Daily Summary

Daily Weather History Graph

Daily Weather History Graph

Search for Another Location

Airport or City:

Trip Planner

Search our weather history database for the weather conditions in past years. The results will help you decide how hot, cold, wet, or windy it might be!

Date:

Astronomy

Jun. 09, 2014 Rise Set
Actual Time 5:39 AM PDT 7:55 PM PDT
Civil Twilight 5:11 AM PDT 8:24 PM PDT
Nautical Twilight 4:36 AM PDT 8:59 PM PDT
Astronomical Twilight 3:58 AM PDT 9:37 PM PDT
Moon 4:31 PM PDT (6/9) 2:58 AM PDT (6/9)
Length of Visible Light 15h 13m
Length of Day
14h 16m
Waxing Gibbous, 86% of the Moon is Illuminated
Jun 9
Waxing Gibbous
Jun 12
Full
Jun 19
Last Quarter
Jun 27
New
Jul 5
First Quarter

Hourly Weather History & Observations

Time (PDT) Temp. Dew Point Humidity Pressure Visibility Wind Dir Wind Speed Gust Speed Precip Events Conditions
12:53 AM 63.0 °F 57.9 °F 84% 29.81 in 9.0 mi Calm Calm - N/A   Overcast
1:53 AM 63.0 °F 57.9 °F 84% 29.79 in 9.0 mi Calm Calm - N/A   Overcast
2:53 AM 63.0 °F 57.9 °F 84% 29.78 in 9.0 mi Calm Calm - N/A   Scattered Clouds
3:30 AM 62.6 °F 57.2 °F 82% 29.79 in 9.0 mi Calm Calm - N/A   Partly Cloudy
3:53 AM 63.0 °F 57.9 °F 84% 29.77 in 9.0 mi Calm Calm - N/A   Clear
4:04 AM 62.6 °F 57.2 °F 82% 29.78 in 9.0 mi NW 3.5 mph - N/A   Scattered Clouds
4:13 AM 62.6 °F 57.2 °F 82% 29.79 in 8.0 mi WNW 3.5 mph - N/A   Mostly Cloudy
4:53 AM 62.1 °F 57.9 °F 86% 29.77 in 8.0 mi NW 5.8 mph - N/A   Overcast
5:53 AM 62.1 °F 57.9 °F 86% 29.80 in 7.0 mi Calm Calm - N/A   Overcast
6:53 AM 63.0 °F 57.9 °F 84% 29.81 in 6.0 mi Calm Calm - N/A   Haze
8:53 AM 64.9 °F 59.0 °F 81% 29.83 in 6.0 mi Calm Calm - N/A   Haze
9:53 AM 68.0 °F 59.0 °F 73% 29.82 in 7.0 mi SSW 3.5 mph - N/A   Mostly Cloudy
10:14 AM 69.8 °F 59.0 °F 68% 29.83 in 7.0 mi West 3.5 mph - N/A   Scattered Clouds
10:53 AM 71.1 °F 60.1 °F 68% 29.81 in 9.0 mi Variable 5.8 mph - N/A   Partly Cloudy
1:53 PM 69.1 °F 61.0 °F 75% 29.80 in 6.0 mi West 11.5 mph - N/A   Haze
2:53 PM 68.0 °F 60.1 °F 76% 29.80 in 7.0 mi SW 11.5 mph - N/A   Overcast
3:53 PM 66.0 °F 60.1 °F 81% 29.79 in 8.0 mi West 5.8 mph - N/A   Overcast
4:53 PM 69.1 °F 60.1 °F 73% 29.78 in 10.0 mi SW 3.5 mph - N/A   Partly Cloudy
5:53 PM 70.0 °F 60.1 °F 71% 29.77 in 10.0 mi SSW 3.5 mph - N/A   Partly Cloudy
6:53 PM 66.9 °F 59.0 °F 76% 29.78 in 10.0 mi WSW 8.1 mph - N/A   Partly Cloudy
7:53 PM 64.0 °F 59.0 °F 84% 29.78 in 6.0 mi WSW 5.8 mph - N/A   Haze
8:18 PM 64.4 °F 59.0 °F 83% 29.80 in 10.0 mi SW 4.6 mph - N/A   Haze
8:26 PM 64.4 °F 59.0 °F 83% 29.80 in 6.0 mi WSW 6.9 mph - N/A   Haze
8:53 PM 64.0 °F 59.0 °F 84% 29.80 in 4.0 mi WSW 3.5 mph - N/A   Haze
9:53 PM 64.0 °F 59.0 °F 84% 29.81 in 10.0 mi Calm Calm - N/A   Haze
10:53 PM 64.0 °F 59.0 °F 84% 29.81 in 9.0 mi WSW 3.5 mph - N/A   Haze
11:53 PM 64.0 °F 59.0 °F 84% 29.80 in 8.0 mi Calm Calm - N/A   Haze